DELTA 1 DEB

Satellite information

Favourite Embed

Satellite Type and Status

DEBRISIN ORBIT

Key statistics

Satellite DELTA 1 DEB at a glance.

Uptime

17453

Days in orbit

Revolutions

≈ 14.4

Per day

Orbit

SSO

Sun Synchronous Orbit

Inclination

98.6

Latest

Satellite identification and parameters

Extended collection of information and parameters for DELTA 1 DEB.

Object identification

Identified? True

Debris? True

Object name: DELTA 1 DEB

International designator: 1978-026BA

Object number (NORAD): 12209

Object ID (CCSDS): 12209

Country: UNITED STATES OF AMERICA (US)

Current information (Y/N): Y

RCS size: SMALL

Orbital parameters

Period: 100.077 minutes

Inclination: 98.6341 deg

SMA: 7140.287 km

Apoapsis: 802.01 km

Periapsis: 722.293 km

RAAN: 14.4068 deg

Eccentricy: 0.00558217

Argument of periapsis: 223.1857 deg

Mean anomaly: 152.1269 deg

Mean motion: 14.38895607 rev/day

Mean motion (dot): 0.00001504 rev/day2

B* drag term: 0.00049390906 1/REarth

Two-line elements (TLE)

Creation date: Dec. 14, 2025, 6:24 p.m.

Reference frame: TEME

Reference center: EARTH

Epoch: Dec. 14, 2025, 8:36 a.m. UTC

TLE line 0: 0 DELTA 1 DEB

TLE line 1: 1 12209U 78026BA 25348.35846847 .00001504 00000-0 49391-3 0 9993

TLE line 2: 2 12209 98.6341 14.4068 0055822 223.1857 152.1269 14.38895607321610

Live tracking on map

Real-time ground track for satellite DELTA 1 DEB.

In-orbit conjunctions

A list of the most updated potential collisions computed for object DELTA 1 DEB.

Target Orbit TCA Probability of collision Miss distance Type
SL-14 DEB LEO 2025-09-28 02:57:07 0.0002650337 106.0 (m) DEBRIS
COSMOS 2251 DEB LEO 2025-09-02 02:11:26 0.0001727296 28.0 (m) DEBRIS
NOAA 16 DEB SSO 2025-05-20 09:25:43 0.0001448471 151.0 (m) DEBRIS

Associated space launch

Earth observation satellite

DELTA 1 DEB was lifted into orbit during the mission ‘Delta 2910 | Landsat 3’, on board a Delta 2910 space rocket.

The launch took place on March 5, 1978, 5:54 p.m. from Space Launch Complex 2W.

For more information about the launch, click the button.

Launch to space Delta 2910 | Landsat 3
Delta 2910 | Landsat 3

Agency: N/A

Status: Launch Successful

Launch date: March 5, 1978, 5:54 p.m. UTC

Rocket: Delta 2910

Launch pad: Space Launch Complex 2W

Location: Vandenberg SFB, CA, USA

...

Latest news about this satellite

There are no fresh news available about this satellite. Check back as we update our databases every day.


Newsletter sign-up

Weekly statistics, charts and insights to help you stay on top of the space industry.